This is the latest recevied weather packets stored in our database for station/object K4AMF. If no packets are shown the sender has not sent any weather packets the latest 10 day(s).
| Time | Temp. | Humidity | Pressure | Rain* | Wind** | Luminosity | Snow |
|---|---|---|---|---|---|---|---|
| 1777479941 | 30° C | 59% | 1012.3 hPa | 0 mm | - | 675 W/m² | - |
| 1777479638 | 29.44° C | 63% | 1012.3 hPa | 0 mm | - | 680 W/m² | - |
| 1777479336 | 29.44° C | 61% | 1012.5 hPa | 0 mm | - | 793 W/m² | - |
| 1777479032 | 29.44° C | 64% | 1012.5 hPa | 0 mm | - | 753 W/m² | - |
| 1777478729 | 28.89° C | 65% | 1012.4 hPa | 0 mm | - | 756 W/m² | - |
| 1777478425 | 28.33° C | 69% | 1012.6 hPa | 0 mm | - | 766 W/m² | - |
| 1777478122 | 28.89° C | 68% | 1012.8 hPa | 0 mm | - | 763 W/m² | - |
| 1777477819 | 28.33° C | 68% | 1012.7 hPa | 0 mm | - | 736 W/m² | - |
| 1777477514 | 28.33° C | 71% | 1012.9 hPa | 0 mm | - | 736 W/m² | - |
| 1777477211 | 28.89° C | 70% | 1012.8 hPa | 0 mm | - | 712 W/m² | - |
| 1777476907 | 27.78° C | 72% | 1012.9 hPa | 0 mm | - | 714 W/m² | - |
| 1777476606 | 27.78° C | 72% | 1013 hPa | 0 mm | - | 498 W/m² | - |
| 1777476302 | 27.78° C | 71% | 1013.1 hPa | 0 mm | - | 742 W/m² | - |
| 1777475997 | 27.78° C | 72% | 1013.1 hPa | 0 mm | - | 753 W/m² | - |
| 1777475693 | 27.78° C | 73% | 1013.1 hPa | 0 mm | - | 766 W/m² | - |
| 1777475390 | 27.22° C | 73% | 1013.1 hPa | 0 mm | - | 754 W/m² | - |
| 1777475085 | 27.22° C | 75% | 1013.5 hPa | 0 mm | - | 769 W/m² | - |
| 1777474782 | 26.67° C | 74% | 1013.5 hPa | 0 mm | - | 797 W/m² | - |
| 1777474478 | 26.67° C | 75% | 1013.8 hPa | 0 mm | - | 768 W/m² | - |
| 1777474174 | 26.11° C | 76% | 1013.7 hPa | 0 mm | - | 707 W/m² | - |
| 1777473873 | 26.11° C | 76% | 1013.8 hPa | 0 mm | - | 531 W/m² | - |
| 1777473570 | 26.11° C | 77% | 1013.9 hPa | 0 mm | - | 675 W/m² | - |
| 1777473266 | 25.56° C | 77% | 1013.9 hPa | 0 mm | - | 676 W/m² | - |
| 1777472961 | 25.56° C | 77% | 1013.7 hPa | 0 mm | - | 244 W/m² | - |
| 1777472658 | 26.11° C | 76% | 1013.9 hPa | 0 mm | - | 280 W/m² | - |
* Rain latest hour (hover to see other rain measurements)
** Current wind speed in m/s (hover to see current wind gust speed)